When you browse on this site, cookies collect data to enhance your experience and personalize the content and advertising you see.
Visit our Privacy Policy to learn more. By continuing to use the site, you agree to this use of cookies and data.
  • In Latvia
  • List of Countries
  • For 7 days
  • Water Temperature
  • Weather Map
  • Weather Widgets
  • user-avatar
    Login

    Hourly Weather Persianovskiy

    Today, 25 August, Sunday

    Time Temperature Precipitation Wind Pressure Humidity
    00:00 +28°C° 0.2 mm 5 mps 757 mmHg 48%
    01:00 +27°C° 0.1 mm 5 mps 757 mmHg 51%
    02:00 +26°C° 0.1 mm 5 mps 757 mmHg 54%
    03:00 +26°C° 0.1 mm 4 mps 757 mmHg 57%
    04:00 +25°C° 0 mm 5 mps 757 mmHg 59%
    05:00 +25°C° 0 mm 5 mps 758 mmHg 61%
    06:00 +23°C° 0 mm 5 mps 758 mmHg 62%
    07:00 +26°C° 0 mm 5 mps 758 mmHg 58%
    08:00 +27°C° 0 mm 5 mps 758 mmHg 53%
    09:00 +29°C° 0 mm 5 mps 759 mmHg 49%
    10:00 +30°C° 0 mm 5 mps 758 mmHg 44%
    11:00 +33°C° 0 mm 5 mps 758 mmHg 39%
    12:00 +35°C° 0 mm 5 mps 758 mmHg 34%
    13:00 +35°C° 0 mm 5 mps 758 mmHg 33%
    14:00 +36°C° 0 mm 5 mps 758 mmHg 32%
    15:00 +36°C° 0 mm 5 mps 758 mmHg 30%
    16:00 +35°C° 0 mm 6 mps 758 mmHg 32%
    17:00 +35°C° 0 mm 6 mps 758 mmHg 34%
    18:00 +34°C° 0 mm 6 mps 758 mmHg 36%
    19:00 +32°C° 0 mm 6 mps 758 mmHg 39%
    20:00 +30°C° 0 mm 6 mps 759 mmHg 42%
    21:00 +29°C° 0 mm 6 mps 759 mmHg 45%
    22:00 +28°C° 0 mm 6 mps 759 mmHg 43%
    23:00 +27°C° 0 mm 6 mps 760 mmHg 40%

    Tomorrow, 26 August, Monday

    Time Temperature Precipitation Wind Pressure Humidity
    00:00 +26°C° 0 mm 6 mps 760 mmHg 38%
    01:00 +24°C° 0 mm 6 mps 760 mmHg 39%
    02:00 +24°C° 0 mm 6 mps 760 mmHg 40%
    03:00 +23°C° 0 mm 5 mps 761 mmHg 41%
    04:00 +23°C° 0 mm 5 mps 761 mmHg 46%
    05:00 +22°C° 0 mm 5 mps 761 mmHg 51%
    06:00 +21°C° 0 mm 5 mps 761 mmHg 56%
    07:00 +23°C° 0 mm 5 mps 761 mmHg 53%
    08:00 +24°C° 0 mm 6 mps 761 mmHg 50%
    09:00 +26°C° 0 mm 6 mps 762 mmHg 47%
    10:00 +28°C° 0 mm 6 mps 762 mmHg 43%
    11:00 +29°C° 0 mm 5 mps 761 mmHg 39%
    12:00 +32°C° 0 mm 5 mps 761 mmHg 35%
    13:00 +32°C° 0 mm 5 mps 761 mmHg 33%
    14:00 +33°C° 0 mm 5 mps 761 mmHg 31%
    15:00 +33°C° 0 mm 5 mps 761 mmHg 29%
    16:00 +33°C° 0 mm 5 mps 761 mmHg 30%
    17:00 +32°C° 0 mm 5 mps 760 mmHg 31%
    18:00 +30°C° 0 mm 5 mps 760 mmHg 33%
    19:00 +28°C° 0 mm 5 mps 760 mmHg 35%
    20:00 +27°C° 0 mm 5 mps 761 mmHg 38%
    21:00 +25°C° 0 mm 4 mps 761 mmHg 40%
    22:00 +23°C° 0 mm 5 mps 761 mmHg 38%
    23:00 +23°C° 0 mm 5 mps 761 mmHg 36%

    Day after tomorrow, 27 August, Tuesday

    Time Temperature Precipitation Wind Pressure Humidity
    00:00 +22°C° 0 mm 5 mps 761 mmHg 34%
    01:00 +21°C° 0 mm 4 mps 761 mmHg 36%
    02:00 +21°C° 0 mm 4 mps 760 mmHg 39%
    03:00 +20°C° 0 mm 4 mps 760 mmHg 41%
    04:00 +20°C° 0 mm 4 mps 760 mmHg 43%
    05:00 +19°C° 0 mm 4 mps 760 mmHg 45%
    06:00 +19°C° 0 mm 3 mps 760 mmHg 48%
    07:00 +21°C° 0 mm 4 mps 760 mmHg 43%
    08:00 +23°C° 0 mm 4 mps 760 mmHg 38%
    09:00 +26°C° 0 mm 4 mps 760 mmHg 33%
    10:00 +28°C° 0 mm 3 mps 759 mmHg 30%
    11:00 +29°C° 0 mm 3 mps 759 mmHg 28%
    12:00 +30°C° 0 mm 3 mps 759 mmHg 26%
    13:00 +31°C° 0 mm 3 mps 758 mmHg 24%
    14:00 +31°C° 0 mm 2 mps 758 mmHg 22%
    15:00 +32°C° 0 mm 2 mps 757 mmHg 21%
    16:00 +31°C° 0 mm 3 mps 757 mmHg 21%
    17:00 +32°C° 0 mm 4 mps 757 mmHg 22%
    18:00 +30°C° 0 mm 5 mps 757 mmHg 22%
    19:00 +28°C° 0 mm 4 mps 757 mmHg 25%
    20:00 +26°C° 0 mm 4 mps 757 mmHg 28%
    21:00 +23°C° 0 mm 4 mps 757 mmHg 31%
    22:00 +22°C° 0 mm 3 mps 757 mmHg 34%
    23:00 +21°C° 0 mm 3 mps 757 mmHg 37%

    28 August, Wednesday

    Time Temperature Precipitation Wind Pressure Humidity
    00:00 +20°C° 0 mm 3 mps 757 mmHg 40%
    01:00 +20°C° 0 mm 3 mps 757 mmHg 43%
    02:00 +19°C° 0 mm 3 mps 757 mmHg 45%
    03:00 +19°C° 0 mm 2 mps 757 mmHg 48%
    04:00 +18°C° 0 mm 3 mps 757 mmHg 51%
    05:00 +18°C° 0 mm 3 mps 757 mmHg 54%
    06:00 +18°C° 0 mm 3 mps 757 mmHg 58%
    07:00 +20°C° 0 mm 4 mps 757 mmHg 56%
    08:00 +21°C° 0 mm 4 mps 757 mmHg 55%
    09:00 +23°C° 0 mm 5 mps 757 mmHg 53%
    10:00 +25°C° 0 mm 5 mps 757 mmHg 46%
    11:00 +26°C° 0 mm 5 mps 757 mmHg 39%
    12:00 +27°C° 0 mm 5 mps 757 mmHg 32%
    13:00 +28°C° 0 mm 6 mps 757 mmHg 31%
    14:00 +28°C° 0 mm 6 mps 757 mmHg 31%
    15:00 +28°C° 0 mm 6 mps 757 mmHg 30%
    16:00 +27°C° 0 mm 6 mps 757 mmHg 30%
    17:00 +26°C° 0 mm 6 mps 757 mmHg 29%
    18:00 +25°C° 0 mm 5 mps 757 mmHg 29%
    19:00 +22°C° 0 mm 5 mps 758 mmHg 32%
    20:00 +20°C° 0 mm 4 mps 758 mmHg 35%
    21:00 +19°C° 0 mm 4 mps 758 mmHg 39%
    22:00 +18°C° 0 mm 4 mps 759 mmHg 39%
    23:00 +17°C° 0 mm 4 mps 759 mmHg 39%

    29 August, Thursday

    Time Temperature Precipitation Wind Pressure Humidity
    00:00 +15°C° 0 mm 4 mps 759 mmHg 39%
    01:00 +14°C° 0 mm 4 mps 759 mmHg 43%
    02:00 +13°C° 0 mm 3 mps 760 mmHg 46%
    03:00 +12°C° 0 mm 3 mps 760 mmHg 50%
    04:00 +11°C° 0 mm 3 mps 760 mmHg 52%
    05:00 +11°C° 0 mm 3 mps 760 mmHg 54%
    06:00 +10°C° 0 mm 3 mps 761 mmHg 56%
    07:00 +12°C° 0 mm 4 mps 761 mmHg 51%
    08:00 +13°C° 0 mm 4 mps 761 mmHg 47%
    09:00 +15°C° 0 mm 5 mps 761 mmHg 42%
    10:00 +16°C° 0 mm 5 mps 761 mmHg 37%
    11:00 +17°C° 0 mm 5 mps 761 mmHg 33%
    12:00 +19°C° 0 mm 5 mps 761 mmHg 29%
    13:00 +20°C° 0 mm 5 mps 760 mmHg 28%
    14:00 +21°C° 0 mm 5 mps 760 mmHg 27%
    15:00 +21°C° 0 mm 5 mps 760 mmHg 26%
    16:00 +21°C° 0 mm 5 mps 760 mmHg 27%
    17:00 +21°C° 0 mm 5 mps 760 mmHg 28%
    18:00 +20°C° 0 mm 5 mps 760 mmHg 29%
    19:00 +19°C° 0 mm 5 mps 760 mmHg 33%
    20:00 +16°C° 0 mm 5 mps 760 mmHg 37%
    21:00 +15°C° 0 mm 5 mps 760 mmHg 41%
    22:00 +14°C° 0 mm 4 mps 761 mmHg 44%
    23:00 +13°C° 0 mm 4 mps 761 mmHg 47%

    30 August, Friday

    Time Temperature Precipitation Wind Pressure Humidity
    00:00 +13°C° 0 mm 4 mps 761 mmHg 50%
    01:00 +12°C° 0 mm 4 mps 761 mmHg 53%
    02:00 +12°C° 0 mm 4 mps 761 mmHg 55%
    03:00 +11°C° 0 mm 4 mps 761 mmHg 57%
    04:00 +10°C° 0 mm 4 mps 761 mmHg 58%
    05:00 +10°C° 0 mm 4 mps 761 mmHg 60%
    06:00 +10°C° 0 mm 4 mps 761 mmHg 62%
    07:00 +12°C° 0 mm 4 mps 761 mmHg 55%
    08:00 +14°C° 0 mm 5 mps 761 mmHg 48%
    09:00 +16°C° 0 mm 5 mps 761 mmHg 41%
    10:00 +17°C° 0 mm 5 mps 761 mmHg 38%
    11:00 +20°C° 0 mm 5 mps 761 mmHg 35%
    12:00 +21°C° 0 mm 6 mps 761 mmHg 32%
    13:00 +22°C° 0 mm 5 mps 760 mmHg 30%
    14:00 +23°C° 0 mm 5 mps 760 mmHg 29%
    15:00 +25°C° 0 mm 5 mps 760 mmHg 28%
    16:00 +23°C° 0 mm 5 mps 759 mmHg 29%
    17:00 +22°C° 0 mm 5 mps 759 mmHg 31%
    18:00 +22°C° 0 mm 5 mps 759 mmHg 32%
    19:00 +20°C° 0 mm 4 mps 759 mmHg 37%
    20:00 +18°C° 0 mm 4 mps 760 mmHg 42%
    21:00 +16°C° 0 mm 3 mps 760 mmHg 47%
    22:00 +16°C° 0 mm 3 mps 760 mmHg 50%
    23:00 +14°C° 0 mm 3 mps 760 mmHg 53%
    Show more